Meridian NAS, MS

9:17 PM CDT on July 20, 2017 (GMT -0500)
Meridian Naval Air Station

Weather History for KNMM - October, 2013

Change the Weather History Date:

Wednesday, October 16, 2013

  Actual Average Record
Temperature  
Mean Temperature 72 °F -  
Max Temperature 80 °F 74 °F 87 °F (2011)
Min Temperature 64 °F 51 °F 41 °F (2003)
Cooling Degree Days 7    
Growing Degree Days 22 (Base 50)    
Moisture  
Dew Point 67 °F    
Average Humidity 86    
Maximum Humidity 96    
Minimum Humidity 60    
Precipitation  
Precipitation 0.03 in - - ()
Sea Level Pressure  
Sea Level Pressure 29.98 in    
Wind  
Wind Speed 3 mph (South)    
Max Wind Speed 10 mph    
Max Gust Speed -    
Visibility 9 miles    
Events Rain    
Averages and records for this station are not official NWS values.
T = Trace of Precipitation, MM = Missing Value Source: NWS Daily Summary

Daily Weather History Graph

Daily Weather History Graph

Search for Another Location

Airport or City:

Trip Planner

Search our weather history database for the weather conditions in past years. The results will help you decide how hot, cold, wet, or windy it might be!

Date:

Astronomy

Oct. 16, 2013 Rise Set
Actual Time 6:59 AM CDT 6:19 PM CDT
Civil Twilight 6:34 AM CDT 6:44 PM CDT
Nautical Twilight 6:05 AM CDT 7:13 PM CDT
Astronomical Twilight 5:37 AM CDT 7:41 PM CDT
Moon 4:54 PM CDT (10/16) 4:33 AM CDT (10/16)
Length of Visible Light 12h 10m
Length of Day
11h 20m
Waxing Gibbous, 94% of the Moon is Illuminated
Oct 16
Waxing Gibbous
Oct 18
Full
Oct 26
Last Quarter
Nov 3
New
Nov 9
First Quarter

Hourly Weather History & Observations

Time (CDT) Temp. Heat Index Dew Point Humidity Pressure Visibility Wind Dir Wind Speed Gust Speed Precip Events Conditions
12:56 AM 66.0 °F - 62.1 °F 87% 30.02 in 10.0 mi SE 4.6 mph - N/A   Clear
1:56 AM 66.0 °F - 63.0 °F 90% 30.01 in 10.0 mi SSE 3.5 mph - N/A   Clear
2:56 AM 66.0 °F - 63.0 °F 90% 30.01 in 10.0 mi SSE 3.5 mph - N/A   Scattered Clouds
3:56 AM 64.9 °F - 62.1 °F 90% 30.01 in 10.0 mi Calm Calm - N/A   Mostly Cloudy
4:56 AM 64.9 °F - 62.1 °F 90% 30.00 in 10.0 mi SSE 3.5 mph - N/A   Scattered Clouds
5:56 AM 64.9 °F - 62.1 °F 90% 30.01 in 10.0 mi SSE 4.6 mph - N/A   Overcast
6:56 AM 64.9 °F - 62.1 °F 90% 30.03 in 10.0 mi SSE 3.5 mph - N/A   Overcast
7:56 AM 66.0 °F - 62.1 °F 87% 30.03 in 10.0 mi SSE 4.6 mph - N/A   Overcast
8:56 AM 66.9 °F - 63.0 °F 87% 30.04 in 10.0 mi SSE 4.6 mph - N/A   Overcast
9:56 AM 69.1 °F - 64.0 °F 84% 30.05 in 10.0 mi Calm Calm - N/A   Overcast
10:56 AM 72.0 °F - 64.9 °F 78% 30.04 in 10.0 mi South 3.5 mph - N/A   Overcast
11:56 AM 73.9 °F - 66.9 °F 79% 30.03 in 10.0 mi South 4.6 mph - N/A   Overcast
12:56 PM 80.1 °F 82.3 °F 66.9 °F 64% 29.99 in 10.0 mi Variable 4.6 mph - N/A   Mostly Cloudy
1:56 PM 80.1 °F 81.9 °F 64.9 °F 60% 29.96 in 10.0 mi SSW 9.2 mph - N/A   Mostly Cloudy
2:56 PM 78.1 °F - 66.0 °F 66% 29.95 in 10.0 mi SSW 3.5 mph - N/A   Overcast
3:56 PM 79.0 °F - 66.9 °F 66% 29.94 in 10.0 mi SE 3.5 mph - N/A   Overcast
4:56 PM 75.9 °F - 69.1 °F 79% 29.95 in 10.0 mi West 4.6 mph - N/A   Overcast
5:05 PM 75.2 °F - 66.2 °F 73% 29.92 in 10.0 mi West 9.2 mph - 0.00 in Rain Light Rain
5:33 PM 73.4 °F - 69.8 °F 88% 29.93 in 10.0 mi Calm Calm - 0.00 in   Overcast
5:40 PM 73.4 °F - 69.8 °F 88% 29.94 in 10.0 mi Calm Calm - 0.00 in   Overcast
5:47 PM 73.4 °F - 69.8 °F 88% 29.94 in 10.0 mi NW 8.1 mph - 0.00 in Rain Light Rain
5:56 PM 72.0 °F - 69.1 °F 91% 29.96 in 5.0 mi NW 10.4 mph - 0.01 in Rain Light Rain
6:07 PM 71.6 °F - 69.8 °F 94% 29.95 in 6.0 mi NW 6.9 mph - 0.00 in Rain Light Rain
6:21 PM 71.6 °F - 69.8 °F 94% 29.95 in 4.0 mi NNW 4.6 mph - 0.01 in Rain Light Rain
6:38 PM 71.6 °F - 68.0 °F 88% 29.95 in 10.0 mi NW 3.5 mph - 0.01 in   Overcast
6:52 PM 71.6 °F - 68.0 °F 88% 29.95 in 10.0 mi Calm Calm - 0.01 in   Overcast
6:56 PM 71.1 °F - 68.0 °F 90% 29.97 in 10.0 mi Calm Calm - 0.01 in   Overcast
7:09 PM 71.6 °F - 68.0 °F 88% 29.95 in 10.0 mi Calm Calm - N/A   Overcast
7:37 PM 71.6 °F - 68.0 °F 88% 29.95 in 10.0 mi East 3.5 mph - 0.00 in Rain Light Rain
7:48 PM 69.8 °F - 68.0 °F 94% 29.95 in 10.0 mi East 3.5 mph - 0.00 in   Overcast
7:56 PM 70.0 °F - 68.0 °F 93% 29.98 in 10.0 mi Calm Calm - 0.00 in   Mostly Cloudy
8:56 PM 70.0 °F - 68.0 °F 93% 29.99 in 10.0 mi Calm Calm - N/A   Mostly Cloudy
9:48 PM 69.8 °F - 68.0 °F 94% 29.97 in 6.0 mi Calm Calm - N/A   Overcast
9:56 PM 70.0 °F - 68.0 °F 93% 29.99 in 6.0 mi Calm Calm - N/A   Overcast
10:37 PM 69.8 °F - 68.0 °F 94% 29.96 in 5.0 mi Calm Calm - N/A   Overcast
10:41 PM 69.8 °F - 68.0 °F 94% 29.96 in 5.0 mi Calm Calm - 0.00 in Rain Light Rain
10:56 PM 70.0 °F - 68.0 °F 93% 29.99 in 9.0 mi Calm Calm - 0.00 in   Overcast
11:56 PM 69.1 °F - 68.0 °F 96% 29.97 in 4.0 mi Calm Calm - 0.01 in   Overcast